When you browse on this site, cookies collect data to enhance your experience and personalize the content and advertising you see.
Visit our Privacy Policy to learn more. By continuing to use the site, you agree to this use of cookies and data.
  • In Austria
  • List of Countries
  • For 7 days
  • Water Temperature
  • Satellite Maps
  • Weather Map
  • News
  • Weather Widgets
  • user-avatar
    Login

    Hourly Weather Buda (Lenin)

    Today, 16 July, Tuesday

    Time Temperature Precipitation Wind Pressure Humidity
    00:00 +14°C° 0.1 mm 1 mps 744 mmHg 89%
    01:00 +14°C° 0.1 mm 1 mps 744 mmHg 90%
    02:00 +14°C° 0 mm 1 mps 744 mmHg 91%
    03:00 +14°C° 0.2 mm 1 mps 744 mmHg 91%
    04:00 +14°C° 0.2 mm 1 mps 744 mmHg 92%
    05:00 +14°C° 0.2 mm 1 mps 744 mmHg 93%
    06:00 +15°C° 0.1 mm 1 mps 744 mmHg 89%
    07:00 +18°C° 0.1 mm 1 mps 744 mmHg 84%
    08:00 +19°C° 0.1 mm 1 mps 744 mmHg 80%
    09:00 +20°C° 0.5 mm 1 mps 744 mmHg 74%
    10:00 +21°C° 0.5 mm 1 mps 743 mmHg 67%
    11:00 +21°C° 0.5 mm 2 mps 743 mmHg 61%
    12:00 +23°C° 0 mm 2 mps 743 mmHg 58%
    13:00 +23°C° 0 mm 2 mps 742 mmHg 56%
    14:00 +24°C° 0 mm 2 mps 742 mmHg 53%
    15:00 +24°C° 0 mm 2 mps 742 mmHg 54%
    16:00 +24°C° 0 mm 2 mps 742 mmHg 56%
    17:00 +24°C° 0 mm 2 mps 742 mmHg 58%
    18:00 +21°C° 0.1 mm 2 mps 741 mmHg 64%
    19:00 +20°C° 0.1 mm 1 mps 741 mmHg 70%
    20:00 +18°C° 0.1 mm 1 mps 741 mmHg 76%
    21:00 +18°C° 0 mm 1 mps 741 mmHg 78%
    22:00 +16°C° 0 mm 1 mps 741 mmHg 80%
    23:00 +15°C° 0 mm 1 mps 741 mmHg 83%

    Tomorrow, 17 July, Wednesday

    Time Temperature Precipitation Wind Pressure Humidity
    00:00 +15°C° 0.2 mm 1 mps 741 mmHg 84%
    01:00 +15°C° 0.2 mm 1 mps 741 mmHg 86%
    02:00 +15°C° 0.2 mm 2 mps 741 mmHg 88%
    03:00 +15°C° 0.5 mm 2 mps 741 mmHg 90%
    04:00 +14°C° 0.5 mm 2 mps 740 mmHg 93%
    05:00 +14°C° 0.5 mm 2 mps 740 mmHg 95%
    06:00 +14°C° 0.1 mm 3 mps 740 mmHg 92%
    07:00 +16°C° 0.1 mm 3 mps 740 mmHg 89%
    08:00 +16°C° 0.1 mm 3 mps 740 mmHg 85%
    09:00 +17°C° 0.2 mm 4 mps 740 mmHg 81%
    10:00 +18°C° 0.2 mm 4 mps 740 mmHg 77%
    11:00 +19°C° 0.2 mm 5 mps 740 mmHg 73%
    12:00 +19°C° 0.3 mm 4 mps 740 mmHg 71%
    13:00 +19°C° 0.3 mm 4 mps 740 mmHg 70%
    14:00 +20°C° 0.3 mm 4 mps 740 mmHg 68%
    15:00 +19°C° 0.7 mm 4 mps 740 mmHg 70%
    16:00 +19°C° 0.7 mm 4 mps 740 mmHg 72%
    17:00 +18°C° 0.7 mm 3 mps 740 mmHg 74%
    18:00 +17°C° 0.5 mm 3 mps 739 mmHg 79%
    19:00 +16°C° 0.5 mm 3 mps 739 mmHg 84%
    20:00 +14°C° 0.5 mm 2 mps 739 mmHg 89%
    21:00 +14°C° 0 mm 2 mps 739 mmHg 90%
    22:00 +13°C° 0 mm 2 mps 740 mmHg 91%
    23:00 +12°C° 0 mm 2 mps 740 mmHg 92%

    Day after tomorrow, 18 July, Thursday

    Time Temperature Precipitation Wind Pressure Humidity
    00:00 +12°C° 0 mm 2 mps 740 mmHg 93%
    01:00 +12°C° 0 mm 2 mps 740 mmHg 94%
    02:00 +10°C° 0 mm 2 mps 740 mmHg 95%
    03:00 +10°C° 0 mm 2 mps 740 mmHg 96%
    04:00 +10°C° 0 mm 2 mps 740 mmHg 97%
    05:00 +10°C° 0 mm 2 mps 740 mmHg 98%
    06:00 +12°C° 0 mm 3 mps 740 mmHg 94%
    07:00 +13°C° 0 mm 3 mps 740 mmHg 91%
    08:00 +14°C° 0 mm 4 mps 740 mmHg 88%
    09:00 +17°C° 0.1 mm 4 mps 740 mmHg 83%
    10:00 +17°C° 0.1 mm 5 mps 740 mmHg 78%
    11:00 +19°C° 0.1 mm 6 mps 741 mmHg 73%
    12:00 +19°C° 0.4 mm 6 mps 741 mmHg 75%
    13:00 +17°C° 0.4 mm 6 mps 741 mmHg 77%
    14:00 +17°C° 0.4 mm 7 mps 741 mmHg 78%
    15:00 +17°C° 0 mm 6 mps 741 mmHg 78%
    16:00 +19°C° 0 mm 6 mps 741 mmHg 77%
    17:00 +19°C° 0 mm 5 mps 741 mmHg 76%
    18:00 +17°C° 0.3 mm 5 mps 741 mmHg 80%
    19:00 +16°C° 0.3 mm 5 mps 741 mmHg 84%
    20:00 +16°C° 0.3 mm 5 mps 741 mmHg 88%
    21:00 +15°C° 0.1 mm 5 mps 741 mmHg 90%
    22:00 +15°C° 0.1 mm 5 mps 742 mmHg 92%
    23:00 +15°C° 0.1 mm 4 mps 742 mmHg 94%

    19 July, Friday

    Time Temperature Precipitation Wind Pressure Humidity
    00:00 +14°C° 0 mm 4 mps 742 mmHg 95%
    01:00 +14°C° 0 mm 4 mps 742 mmHg 95%
    02:00 +14°C° 0 mm 3 mps 742 mmHg 96%
    03:00 +14°C° 0 mm 4 mps 743 mmHg 96%
    04:00 +13°C° 0 mm 4 mps 743 mmHg 97%
    05:00 +13°C° 0 mm 4 mps 743 mmHg 97%
    06:00 +14°C° 0 mm 4 mps 743 mmHg 93%
    07:00 +15°C° 0 mm 5 mps 744 mmHg 89%
    08:00 +16°C° 0 mm 5 mps 744 mmHg 85%
    09:00 +19°C° 0.1 mm 5 mps 744 mmHg 79%
    10:00 +20°C° 0.1 mm 5 mps 744 mmHg 74%
    11:00 +22°C° 0.1 mm 6 mps 745 mmHg 68%
    12:00 +22°C° 0.3 mm 6 mps 745 mmHg 66%
    13:00 +23°C° 0.3 mm 6 mps 745 mmHg 64%
    14:00 +23°C° 0.3 mm 6 mps 745 mmHg 62%
    15:00 +23°C° 0.2 mm 6 mps 745 mmHg 64%
    16:00 +23°C° 0.2 mm 5 mps 745 mmHg 65%
    17:00 +23°C° 0.2 mm 5 mps 745 mmHg 67%
    18:00 +21°C° 0.1 mm 4 mps 745 mmHg 71%
    19:00 +19°C° 0.1 mm 3 mps 746 mmHg 76%
    20:00 +18°C° 0.1 mm 3 mps 746 mmHg 80%
    21:00 +17°C° 0 mm 3 mps 746 mmHg 82%
    22:00 +16°C° 0 mm 3 mps 747 mmHg 84%
    23:00 +14°C° 0 mm 3 mps 747 mmHg 86%

    20 July, Saturday

    Time Temperature Precipitation Wind Pressure Humidity
    00:00 +15°C° 0 mm 2 mps 747 mmHg 88%
    01:00 +15°C° 0 mm 2 mps 747 mmHg 89%
    02:00 +14°C° 0 mm 2 mps 747 mmHg 91%
    03:00 +14°C° 0 mm 2 mps 747 mmHg 92%
    04:00 +14°C° 0 mm 2 mps 748 mmHg 92%
    05:00 +14°C° 0 mm 2 mps 748 mmHg 92%
    06:00 +16°C° 0 mm 2 mps 748 mmHg 87%
    07:00 +18°C° 0 mm 2 mps 748 mmHg 82%
    08:00 +19°C° 0 mm 3 mps 748 mmHg 77%
    09:00 +21°C° 0 mm 3 mps 748 mmHg 70%
    10:00 +22°C° 0 mm 3 mps 749 mmHg 64%
    11:00 +24°C° 0 mm 3 mps 749 mmHg 57%
    12:00 +25°C° 0 mm 3 mps 749 mmHg 57%
    13:00 +25°C° 0 mm 3 mps 748 mmHg 57%
    14:00 +25°C° 0 mm 3 mps 748 mmHg 56%
    15:00 +25°C° 0 mm 2 mps 748 mmHg 59%
    16:00 +25°C° 0 mm 2 mps 748 mmHg 61%
    17:00 +25°C° 0 mm 2 mps 748 mmHg 64%
    18:00 +23°C° 0 mm 2 mps 748 mmHg 67%
    19:00 +21°C° 0 mm 1 mps 748 mmHg 70%
    20:00 +20°C° 0 mm 1 mps 748 mmHg 73%
    21:00 +19°C° 0 mm 1 mps 748 mmHg 74%
    22:00 +19°C° 0 mm 1 mps 748 mmHg 75%
    23:00 +18°C° 0 mm 1 mps 749 mmHg 76%

    21 July, Sunday

    Time Temperature Precipitation Wind Pressure Humidity
    00:00 +18°C° 0.1 mm 1 mps 749 mmHg 78%
    01:00 +18°C° 0.1 mm 1 mps 749 mmHg 80%
    02:00 +18°C° 0.1 mm 1 mps 749 mmHg 83%
    03:00 +18°C° 0 mm 1 mps 749 mmHg 85%
    04:00 +18°C° 0 mm 1 mps 749 mmHg 87%
    05:00 +18°C° 0 mm 1 mps 749 mmHg 90%
    06:00 +19°C° 0 mm 1 mps 749 mmHg 84%
    07:00 +20°C° 0 mm 1 mps 749 mmHg 79%
    08:00 +22°C° 0 mm 1 mps 749 mmHg 73%
    09:00 +23°C° 0.1 mm 1 mps 749 mmHg 70%
    10:00 +24°C° 0.1 mm 1 mps 749 mmHg 66%
    11:00 +25°C° 0.1 mm 2 mps 749 mmHg 62%
    12:00 +25°C° 0 mm 2 mps 749 mmHg 59%
    13:00 +26°C° 0 mm 2 mps 749 mmHg 56%
    14:00 +26°C° 0 mm 2 mps 749 mmHg 53%
    15:00 +26°C° 0 mm 2 mps 749 mmHg 55%
    16:00 +26°C° 0 mm 2 mps 748 mmHg 56%
    17:00 +26°C° 0 mm 2 mps 748 mmHg 58%
    18:00 +24°C° 0 mm 1 mps 748 mmHg 63%
    19:00 +22°C° 0 mm 1 mps 748 mmHg 67%
    20:00 +19°C° 0 mm 0 mps 748 mmHg 72%
    21:00 +18°C° 0 mm 0 mps 748 mmHg 75%
    22:00 +17°C° 0 mm 0 mps 748 mmHg 77%
    23:00 +17°C° 0 mm 0 mps 749 mmHg 79%
    Show more